Regional Weather Roundup
Issued by NWS Charleston, SC

Current Version | Previous Version | Graphics & Text | Print | Product List | Glossary On
Versions: 1 2 3 4 5 6 7 8 9 10 11 12 13 14 15 16 17 18 19 20 21 22 23 24 25 26 27 28 29 30 31 32 33 34 35 36 37 38 39 40 41 42 43 44 45 46 47 48 49 50
000
ASUS42 KCHS 061311
RWRCHS

REGIONAL WEATHER ROUNDUP
NATIONAL WEATHER SERVICE CHARLESTON SC
800 AM EST FRI MAR 06 2015

NOTE: "FAIR" INDICATES FEW OR NO CLOUDS BELOW 12,000 FEET WITH NO
SIGNIFICANT WEATHER AND/OR OBSTRUCTIONS TO VISIBILITY.

NOT ALL STATIONS ARE QUALITY CONTROLLED BY THE NATIONAL
WEATHER SERVICE. USE DATA WITH CAUTION...ESPECIALLY
DEWPOINT OBSERVATIONS.

SCZ027-030-031-034>040-042>050-061400-
...SOUTHEAST SOUTH CAROLINA...

CITY           SKY/WX    TMP DP  RH WIND       PRES   REMARKS
N CHARLESTON   CLOUDY    39  31  72 NE9       30.38R WCI  33
WATERFRONT PRK NOT AVBL
MOUNT PLEASANT LGT RAIN  39  32  75 N9G18     30.38R WCI  33
PINOPOLIS        N/A     39  32  75 NE16      30.28F WCI  30
MONCKS CORNER  CLOUDY    39  28  65 NE15G22   30.39R WCI  31
SUMMERVILLE    CLOUDY    39  32  75 NE9G17    30.40R WCI  33
BEAUFORT MCAS  CLOUDY    41  35  79 N14       30.36R
BEAUFORT ARPT  CLOUDY    43  37  81 N14       30.36R
HILTON HEAD IS CLOUDY    43  37  81 N9        30.36R
WALTERBORO     CLOUDY    41  34  75 NE12      30.40R
ALLENDALE      CLOUDY    39  32  75 N9G15     30.39R WCI  33

...SOUTHERN MIDLANDS AND PEE DEE...

CITY           SKY/WX    TMP DP  RH WIND       PRES   REMARKS
GEORGETOWN     NOT AVBL
KINGSTREE      NOT AVBL
ORANGEBURG     CLOUDY    38  29  70 NE14      30.40R WCI  30
BARNWELL       CLOUDY    39  32  75 NE13      30.41R WCI  32
AIKEN          CLOUDY    36  28  75 N14       30.42R WCI  27
MANNING        CLOUDY    37  23  56 N12G20    30.41R WCI  30
COLUMBIA       CLOUDY    37  26  64 N14       30.43R WCI  28
SUMTER         CLOUDY    36  29  77 NE14      30.41R WCI  27
FLORENCE       CLOUDY    35  25  66 NE12      30.44R WCI  27
MYRTLE BEACH   CLOUDY    36  27  69 NE16G24   30.42R WCI  26
N MYRTLE BEACH CLOUDY    35  24  64 NE16G24   30.40R WCI  25

$$

GAZ063-065-086>088-099>101-113>116-118-119-134>141-150-061400-
...SOUTHEAST GEORGIA...

CITY           SKY/WX    TMP DP  RH WIND       PRES   REMARKS
SAVANNAH ARPT  CLOUDY    42  35  76 NE9       30.36R
HUNTER AAF     CLOUDY    42  38  86 NE8       30.33R
FORT STEWART   CLOUDY    42  38  86 NE8       30.32R
STATESBORO     CLOUDY    40  38  93 NE8       30.37R WCI  35
SYLVANIA       CLOUDY    40  34  80 NE9       30.37R WCI  34
CLAXTON        CLOUDY    43  36  75 NE12G17   30.35R

...CSRA...CENTRAL AND FAR SOUTHEAST GEORGIA...

CITY           SKY/WX    TMP DP  RH WIND       PRES   REMARKS
THOMSON        CLOUDY    41  34  78 N8        30.44R
AUGUSTA-BUSH   CLOUDY    40  32  73 E10       30.40R WCI  33
AUGUSTA-DANIEL CLOUDY    40  29  64 NE12      30.40R WCI  33
SWAINSBORO     CLOUDY    43  30  61 NE8       30.37R
VIDALIA        CLOUDY    43  39  87 NE7       30.34R
EASTMAN        CLOUDY    41  41 100 NE9G17    30.37R
HAZLEHURST     CLOUDY    44  43  94 E7        30.32R
ALMA           CLOUDY    44  40  85 NE7       30.31R
WAYCROSS       CLOUDY    49  47  95 NE8       30.31R FOG
JESUP          CLOUDY    46  43  87 E12       30.33R
BAXLEY         CLOUDY    45  41  87 NE10      30.32R
BRUNSWICK      CLOUDY    46  43  87 NE13G22   30.33R
SAINT SIMONS   CLOUDY    46  43  89 NE15G29   30.32R

$$

SCZ027-028-034-036>038-045-046-048>050-GAZ119-141-061400-
...LAKE AND SUPPLEMENTAL COASTAL OBSERVATIONS...

STATION/POSITION TIME  TEMP    WIND        PRES    WAVE   SWELL
                       AIR SEA DIR/SP/G            HT/PER HT/PER/DIR
                 (UTC) (F)     (DEG/KT/KT) (MB)    (FT/S) (FT/S/D)
UPR LAKE MARION  NOT AVBL
WINYAH BAY       1145   36      20/ 10     1027.0
LAKE MURRAY      1200   36      30/  4/  9 1028.8R
ACE BASIN NERRS  NOT AVBL
FORT PULASKI     1200   42 53   20/ 14/ 19 1027.4R
SAPELO ISLAND    1200   44      40/ 12     1026.0

$$

ANZ835-935-AMZ111-154-330-350-352-354-370-450-454-472-061400-
...C-MAN AND BUOY OBSERVATIONS...

STATION/POSITION TIME  TEMP    WIND        PRES    WAVE   SWELL
                       AIR SEA DIR/SP/G            HT/PER HT/PER/DIR
                 (UTC) (F)     (DEG/KT/KT) (MB)    (FT/S) (FT/S/D)
BUOY 41004       1250   47 68   30/ 25/ 31 1025.7R  11/ 8
BUOY 41008       1250   47 55   40/ 23/ 29 1025.7R   8/ 6   2/ 80/11
FOLLY BEACH CMAN 1300   40      20/ 14/ 17 1028.7R
CAPERS NEARSHORE 1200   40      40/ 19/ 23   N/A
FRIPP NEARSHORE  1200   43      40/ 17/ 21 1026.0R


STATION/POSITION TIME  TEMP    WIND        PRES    WAVE   SWELL
                       AIR SEA DIR/SP/G            HT/PER HT/PER/DIR
                 (UTC) (F)     (DEG/KT/KT) (MB)    (FT/S) (FT/S/D)
5E ST. MARYS GA  1221      54                N/A     6/ 6   2/110/11
FRYING PAN BUOY  1250   41 62   30/ 23/ 29 1027.8R  10/ 8   3/240/14
BUOY 41025       NOT AVBL
CAPE LOOKOUT NC  1200           20/ 19/ 24 1028.9R
BUOY 41002       1250   65 72   10/ 23/ 29 1021.0R   6/ 7   2/ 90/ 9
BUOY 41010       1220   75 75  300/  6/  8 1021.0R
ST AUGUSTINE FL  1300   53      10/ 25/ 28 1024.9R


$$


USA.gov is the U.S. government's official web portal to all federal, state and local government web resources and services.